EW4573 Weather Reports


Display with metric or nautical units.
time (UTC)temp
F
wind
direction
speed
MPH
gust
MPH
rain 1hr
in
rain 24hr
in
rain mn
in
humidity
%
barometer
mb
20260906120004 73 56 1.0 5.0 0.00 0.03 0.00 94 1012.3
20260906115503 73 50 1.0 5.0 0.00 0.03 0.00 94 1012.2
20260906115003 73 65 1.0 3.0 0.00 0.03 0.00 94 1012.2
20260906114503 73 64 1.0 3.0 0.00 0.03 0.00 94 1012.1
20260906114003 73 57 1.0 3.0 0.00 0.03 0.00 94 1012.0
20260906113503 73 59 0.0 3.0 0.00 0.03 0.00 94 1011.9
20260906113003 73 55 0.0 3.0 0.00 0.03 0.00 94 1011.9
20260906112503 73 54 0.0 4.0 0.00 0.03 0.00 94 1011.9
20260906112003 73 64 0.0 4.0 0.00 0.03 0.00 94 1011.8
20260906111503 73 65 1.0 4.0 0.00 0.03 0.00 94 1011.6
20260906111003 73 63 2.0 5.0 0.00 0.03 0.00 94 1011.5
20260906110503 73 72 2.0 5.0 0.00 0.03 0.00 94 1011.4
20260906110003 73 65 1.0 5.0 0.00 0.03 0.00 94 1011.4
20260906105503 73 43 1.0 5.0 0.00 0.03 0.00 94 1011.4
20260906105003 73 57 1.0 5.0 0.00 0.03 0.00 94 1011.2
20260906104503 73 76 2.0 6.0 0.00 0.03 0.00 94 1011.2
20260906104003 73 67 1.0 6.0 0.00 0.03 0.00 94 1011.2
20260906103503 73 48 1.0 6.0 0.00 0.03 0.00 94 1011.2
20260906103003 73 64 0.0 5.0 0.00 0.03 0.00 95 1011.2
20260906102503 73 55 0.0 3.0 0.00 0.03 0.00 95 1011.2
20260906102003 73 34 0.0 3.0 0.00 0.03 0.00 95 1011.2
20260906101503 73 64 1.0 3.0 0.00 0.03 0.00 95 1011.1
20260906101003 73 68 1.0 3.0 0.00 0.03 0.00 95 1011.1
20260906100503 73 46 0.0 3.0 0.00 0.03 0.00 95 1011.0
20260906100003 73 21 0.0 2.0 0.00 0.03 0.00 95 1010.9
20260906095503 73 48 0.0 3.0 0.00 0.03 0.00 96 1010.8
20260906095003 73 74 0.0 3.0 0.00 0.03 0.00 96 1010.7
20260906094504 73 71 0.0 2.0 0.00 0.03 0.00 96 1010.7
20260906094003 73 49 0.0 2.0 0.00 0.03 0.00 96 1010.6
20260906093503 73 46 0.0 3.0 0.00 0.03 0.00 96 1010.4
20260906093003 73 62 0.0 3.0 0.00 0.03 0.00 96 1010.4
20260906092503 73 68 0.0 3.0 0.00 0.03 0.00 96 1010.5
20260906092003 73 67 0.0 3.0 0.00 0.03 0.00 96 1010.5
20260906091503 73 0 0.0 0.0 0.00 0.03 0.00 96 1010.3
20260906091003 72 0 0.0 0.0 0.00 0.03 0.00 96 1010.3
20260906090503 72 67 0.0 1.0 0.00 0.03 0.00 96 1010.3
20260906090003 72 67 0.0 1.0 0.00 0.03 0.00 96 1010.3
20260906085503 72 67 0.0 1.0 0.00 0.03 0.00 96 1010.3
20260906085003 72 0 0.0 0.0 0.00 0.03 0.00 96 1010.3
20260906084503 72 0 0.0 0.0 0.00 0.03 0.00 96 1010.2
20260906084003 72 0 0.0 0.0 0.00 0.03 0.00 96 1010.2
20260906083503 72 0 0.0 0.0 0.00 0.03 0.00 96 1010.2
20260906083003 72 0 0.0 0.0 0.00 0.03 0.00 96 1010.2
20260906082503 71 0 0.0 0.0 0.00 0.03 0.00 96 1010.2
20260906082003 71 15 0.0 1.0 0.00 0.03 0.00 96 1010.2
20260906081503 71 15 0.0 1.0 0.00 0.03 0.00 96 1010.1
20260906081003 71 0 0.0 0.0 0.00 0.03 0.00 96 1010.0
20260906080503 71 0 0.0 0.0 0.00 0.03 0.00 96 1009.9
20260906080003 71 0 0.0 0.0 0.00 0.03 0.00 96 1009.7
20260906075503 71 0 0.0 0.0 0.00 0.03 0.00 96 1009.7
20260906075004 71 0 0.0 0.0 0.00 0.03 0.00 96 1009.7
20260906074503 71 0 0.0 0.0 0.00 0.03 0.00 96 1009.7
20260906074003 71 0 0.0 0.0 0.00 0.03 0.00 96 1009.6
20260906073503 71 0 0.0 0.0 0.00 0.03 0.00 96 1009.5
20260906073003 71 0 0.0 0.0 0.00 0.03 0.00 96 1009.6
20260906072503 71 0 0.0 0.0 0.00 0.03 0.00 95 1009.6
20260906072003 71 0 0.0 0.0 0.00 0.03 0.00 95 1009.6
20260906071503 71 0 0.0 0.0 0.00 0.03 0.00 96 1009.6
20260906071003 71 0 0.0 0.0 0.00 0.03 0.00 96 1009.7
20260906070503 71 0 0.0 0.0 0.00 0.03 0.00 96 1009.6
20260906070003 71 0 0.0 0.0 0.00 0.03 0.00 96 1009.6
20260906065503 71 0 0.0 0.0 0.00 0.03 0.00 95 1009.6
20260906065003 71 0 0.0 0.0 0.00 0.03 0.00 95 1009.6
20260906064503 71 0 0.0 0.0 0.00 0.03 0.00 95 1009.7
20260906064003 71 0 0.0 0.0 0.00 0.03 0.00 95 1009.8
20260906063503 71 0 0.0 0.0 0.00 0.03 0.00 95 1009.9
20260906063003 71 0 0.0 0.0 0.00 0.03 0.00 95 1010.0
20260906062503 71 0 0.0 0.0 0.00 0.03 0.00 95 1009.9
20260906062003 72 0 0.0 0.0 0.00 0.03 0.00 95 1010.0
20260906061503 72 0 0.0 0.0 0.00 0.03 0.00 95 1009.9
20260906061003 72 0 0.0 0.0 0.00 0.03 0.00 95 1010.0
20260906060503 72 0 0.0 0.0 0.00 0.03 0.00 95 1010.0
20260906060003 72 0 0.0 0.0 0.00 0.03 0.00 95 1010.1
20260906055503 72 0 0.0 0.0 0.00 0.03 0.00 95 1010.1
20260906055003 72 0 0.0 0.0 0.00 0.03 0.00 95 1010.2
20260906054503 72 0 0.0 0.0 0.00 0.03 0.00 95 1010.3
20260906054003 72 0 0.0 0.0 0.00 0.03 0.00 95 1010.3
20260906053503 72 0 0.0 0.0 0.00 0.03 0.00 95 1010.4
20260906053003 72 0 0.0 0.0 0.00 0.03 0.00 95 1010.4
20260906052503 72 0 0.0 0.0 0.00 0.03 0.00 95 1010.5
20260906052003 72 0 0.0 0.0 0.00 0.03 0.00 95 1010.5
20260906051503 72 0 0.0 0.0 0.00 0.03 0.00 95 1010.6
20260906051003 72 0 0.0 0.0 0.00 0.03 0.00 95 1010.7
20260906050503 72 0 0.0 0.0 0.00 0.03 0.00 95 1010.7
20260906050003 73 0 0.0 0.0 0.00 0.03 0.00 95 1010.6
20260906045503 73 0 0.0 0.0 0.00 0.03 0.00 95 1010.6
20260906045003 73 0 0.0 0.0 0.00 0.03 0.00 95 1010.6
20260906044503 73 0 0.0 0.0 0.00 0.03 0.00 95 1010.8
20260906044003 73 244 0.0 1.0 0.00 0.03 0.00 95 1010.9
20260906043503 73 244 0.0 1.0 0.00 0.03 0.00 95 1010.9
20260906043003 73 0 0.0 0.0 0.00 0.03 0.00 95 1010.9
20260906042503 73 0 0.0 0.0 0.00 0.03 0.00 95 1010.9
20260906042003 73 0 0.0 0.0 0.00 0.03 0.00 94 1010.9
20260906041503 73 0 0.0 0.0 0.00 0.03 0.00 94 1010.9
20260906041003 73 0 0.0 0.0 0.00 0.03 0.00 94 1010.9
20260906040503 73 0 0.0 0.0 0.00 0.03 0.00 94 1010.9
20260906040004 73 0 0.0 0.0 0.00 0.03 0.00 94 1011.0
20260906035503 73 0 0.0 0.0 0.00 0.03 0.03 94 1011.0
20260906035003 74 0 0.0 0.0 0.00 0.03 0.03 94 1011.1
20260906034503 74 0 0.0 0.0 0.00 0.03 0.03 94 1011.2
20260906034003 74 0 0.0 0.0 0.00 0.03 0.03 94 1011.0
20260906033503 74 0 0.0 0.0 0.00 0.03 0.03 94 1011.1
20260906033003 74 0 0.0 0.0 0.00 0.03 0.03 94 1011.1
20260906032503 74 0 0.0 0.0 0.00 0.03 0.03 94 1011.1
20260906032003 74 0 0.0 0.0 0.00 0.03 0.03 94 1011.1
20260906031503 74 0 0.0 0.0 0.00 0.03 0.03 94 1011.0
20260906031003 74 0 0.0 0.0 0.00 0.03 0.03 93 1010.9
20260906030503 74 0 0.0 0.0 0.00 0.03 0.03 93 1010.9
20260906030003 74 0 0.0 0.0 0.00 0.03 0.03 93 1010.8
20260906025503 74 0 0.0 0.0 0.00 0.03 0.03 93 1010.9
20260906025003 74 0 0.0 0.0 0.00 0.03 0.03 93 1010.8
20260906024503 74 0 0.0 0.0 0.00 0.03 0.03 92 1010.8
20260906024003 74 0 0.0 0.0 0.00 0.03 0.03 92 1010.9
20260906023503 74 0 0.0 0.0 0.00 0.03 0.03 92 1010.9
20260906023003 75 0 0.0 0.0 0.00 0.03 0.03 92 1010.9
20260906022503 75 0 0.0 0.0 0.00 0.03 0.03 92 1011.0
20260906022003 75 87 0.0 2.0 0.00 0.03 0.03 92 1010.8
20260906021503 74 87 0.0 2.0 0.00 0.03 0.03 93 1010.9
20260906021003 74 0 0.0 0.0 0.00 0.03 0.03 93 1010.7
20260906020503 74 0 0.0 0.0 0.00 0.03 0.03 93 1010.6
20260906020003 74 0 0.0 0.0 0.00 0.03 0.03 93 1010.6
20260906015503 74 0 0.0 0.0 0.00 0.03 0.03 94 1010.6
20260906015004 74 0 0.0 0.0 0.00 0.03 0.03 94 1010.7
20260906014503 74 0 0.0 0.0 0.00 0.03 0.03 94 1010.6
20260906014003 74 0 0.0 0.0 0.00 0.03 0.03 93 1010.5
20260906013503 74 0 0.0 0.0 0.00 0.03 0.03 93 1010.5
20260906013003 74 0 0.0 0.0 0.00 0.03 0.03 94 1010.5
20260906012503 74 0 0.0 0.0 0.00 0.03 0.03 93 1010.5
20260906012003 74 0 0.0 0.0 0.00 0.03 0.03 93 1010.4
20260906011503 75 0 0.0 0.0 0.00 0.03 0.03 93 1010.4
20260906011003 75 0 0.0 0.0 0.00 0.03 0.03 93 1010.4
20260906010503 75 0 0.0 0.0 0.00 0.03 0.03 93 1010.4
20260906010003 75 0 0.0 0.0 0.00 0.03 0.03 93 1010.4
20260906005503 75 0 0.0 0.0 0.00 0.03 0.03 93 1010.4
20260906005003 75 0 0.0 0.0 0.00 0.03 0.03 93 1010.3
20260906004503 75 0 0.0 0.0 0.00 0.03 0.03 92 1010.3
20260906004003 75 0 0.0 0.0 0.00 0.03 0.03 93 1010.3
20260906003503 75 0 0.0 0.0 0.00 0.03 0.03 92 1010.3
20260906003003 76 0 0.0 0.0 0.00 0.03 0.03 92 1010.2
20260906002503 76 0 0.0 0.0 0.00 0.03 0.03 92 1010.2
20260906002003 76 0 0.0 0.0 0.00 0.03 0.03 91 1010.1
20260906001503 76 0 0.0 0.0 0.00 0.03 0.03 91 1010.1
20260906001003 76 0 0.0 0.0 0.00 0.03 0.03 91 1010.0
20260906000503 76 0 0.0 0.0 0.00 0.03 0.03 91 1010.0
20260906000003 76 0 0.0 0.0 0.00 0.03 0.03 91 1009.7
20260905235503 76 0 0.0 0.0 0.00 0.03 0.03 90 1009.7
20260905235003 76 0 0.0 0.0 0.00 0.03 0.03 90 1009.8
20260905234503 77 0 0.0 0.0 0.00 0.03 0.03 90 1009.7
20260905234003 77 0 0.0 0.0 0.00 0.03 0.03 89 1009.6
20260905233503 77 0 0.0 0.0 0.00 0.03 0.03 89 1009.5
20260905233003 77 0 0.0 0.0 0.00 0.03 0.03 89 1009.4
20260905232503 77 0 0.0 0.0 0.00 0.03 0.03 89 1009.2
20260905232003 78 0 0.0 0.0 0.00 0.03 0.03 89 1009.2
20260905231503 78 0 0.0 0.0 0.00 0.03 0.03 89 1009.2
20260905231003 78 0 0.0 0.0 0.00 0.03 0.03 88 1009.1
20260905230503 78 0 0.0 0.0 0.00 0.03 0.03 88 1008.9
20260905230003 78 0 0.0 0.0 0.00 0.03 0.03 88 1008.6
20260905225503 78 0 0.0 0.0 0.00 0.03 0.03 89 1008.6
20260905225003 77 0 0.0 0.0 0.00 0.03 0.03 88 1008.6
20260905224503 77 0 0.0 0.0 0.00 0.03 0.03 89 1008.2
20260905224003 77 0 0.0 0.0 0.00 0.03 0.03 89 1008.3
20260905223503 77 0 0.0 0.0 0.00 0.03 0.03 90 1008.4
20260905223003 77 0 0.0 0.0 0.00 0.03 0.03 90 1008.5
20260905222503 76 0 0.0 0.0 0.00 0.03 0.03 91 1008.8
20260905222003 76 0 0.0 0.0 0.00 0.03 0.03 91 1008.9
20260905221503 76 0 0.0 0.0 0.00 0.03 0.03 91 1009.0
20260905221003 76 0 0.0 0.0 0.01 0.03 0.03 90 1009.3
20260905220503 76 0 0.0 0.0 0.01 0.03 0.03 91 1009.3
20260905220003 76 0 0.0 0.0 0.01 0.03 0.03 91 1009.3
20260905215503 76 0 0.0 0.0 0.02 0.03 0.03 91 1009.2
20260905215003 76 0 0.0 0.0 0.03 0.03 0.03 91 1009.2
20260905214503 75 0 0.0 0.0 0.03 0.03 0.03 90 1009.1
20260905214003 76 238 0.0 1.0 0.03 0.03 0.03 90 1009.2
20260905213503 76 238 0.0 1.0 0.03 0.03 0.03 90 1009.0
20260905213003 76 0 0.0 0.0 0.03 0.03 0.03 90 1008.8
20260905212503 76 0 0.0 0.0 0.03 0.03 0.03 88 1008.7
20260905212003 76 0 0.0 0.0 0.03 0.03 0.03 87 1008.7
20260905211503 76 0 0.0 0.0 0.03 0.03 0.03 87 1008.8
20260905211003 77 0 0.0 0.0 0.02 0.02 0.02 85 1008.8
20260905210503 77 0 0.0 0.0 0.02 0.02 0.02 84 1008.9
20260905210003 78 50 0.0 3.0 0.02 0.02 0.02 82 1008.9
20260905205503 79 62 0.0 3.0 0.01 0.01 0.01 79 1009.0
20260905205003 80 66 0.0 3.0 0.00 0.00 0.00 76 1008.8
20260905204503 80 52 1.0 4.0 0.00 0.00 0.00 73 1008.8
20260905204003 81 57 1.0 4.0 0.00 0.00 0.00 73 1008.9
20260905203503 81 61 2.0 6.0 0.00 0.00 0.00 72 1008.9
20260905203003 81 61 1.0 6.0 0.00 0.00 0.00 71 1009.0
20260905202503 82 66 1.0 6.0 0.00 0.00 0.00 70 1008.8
20260905202003 82 75 2.0 8.0 0.00 0.00 0.00 69 1008.4
20260905201503 82 63 3.0 10.0 0.00 0.00 0.00 68 1008.6
20260905201003 83 52 4.0 13.0 0.00 0.00 0.00 67 1008.8
20260905200503 84 49 4.0 13.0 0.00 0.00 0.00 66 1009.1
20260905200003 84 37 2.0 10.0 0.00 0.00 0.00 64 1009.0
20260905195503 85 70 4.0 15.0 0.00 0.00 0.00 64 1008.9
20260905195004 86 62 7.0 18.0 0.00 0.00 0.00 63 1009.1
20260905194503 88 41 5.0 18.0 0.00 0.00 0.00 58 1009.1
20260905194003 93 39 2.0 15.0 0.00 0.00 0.00 52 1008.9
20260905193503 94 30 0.0 5.0 0.00 0.00 0.00 50 1008.6
20260905193003 94 28 1.0 5.0 0.00 0.00 0.00 49 1008.4
20260905192503 95 30 1.0 3.0 0.00 0.00 0.00 48 1008.2
20260905192003 95 24 0.0 3.0 0.00 0.00 0.00 47 1008.1
20260905191503 95 28 1.0 6.0 0.00 0.00 0.00 48 1008.1
20260905191003 95 27 1.0 6.0 0.00 0.00 0.00 47 1008.1
20260905190503 96 355 0.0 1.0 0.00 0.00 0.00 46 1008.0
20260905190003 96 32 0.0 4.0 0.00 0.00 0.00 44 1008.0
20260905185503 97 41 1.0 6.0 0.00 0.00 0.00 46 1008.1
20260905185003 98 44 1.0 6.0 0.00 0.00 0.00 41 1008.1
20260905184503 99 206 0.0 4.0 0.00 0.00 0.00 39 1008.2
20260905184003 99 226 1.0 4.0 0.00 0.00 0.00 38 1008.2
20260905183503 99 235 0.0 3.0 0.00 0.00 0.00 39 1008.2
20260905183003 99 289 0.0 2.0 0.00 0.00 0.00 42 1008.3
20260905182503 99 47 0.0 2.0 0.00 0.00 0.00 43 1008.5
20260905182003 98 57 1.0 7.0 0.00 0.00 0.00 44 1008.6
20260905181503 98 56 1.0 7.0 0.00 0.00 0.00 42 1008.7
20260905181003 98 279 0.0 3.0 0.00 0.00 0.00 45 1008.8
20260905180503 97 280 1.0 3.0 0.00 0.00 0.00 46 1008.9
20260905180003 97 283 1.0 5.0 0.00 0.00 0.00 46 1009.1
20260905175503 96 13 1.0 5.0 0.00 0.00 0.00 46 1009.2
20260905175003 96 46 1.0 6.0 0.00 0.00 0.00 45 1009.4
20260905174503 97 33 1.0 6.0 0.00 0.00 0.00 45 1009.6
20260905174003 98 22 1.0 6.0 0.00 0.00 0.00 46 1009.7
20260905173503 98 43 0.0 3.0 0.00 0.00 0.00 48 1009.8
20260905173003 98 53 0.0 5.0 0.00 0.00 0.00 50 1009.9
20260905172503 97 40 1.0 6.0 0.00 0.00 0.00 50 1009.9
20260905172003 97 28 1.0 6.0 0.00 0.00 0.00 49 1010.0
20260905171503 96 358 1.0 5.0 0.00 0.00 0.00 49 1010.1
20260905171003 96 34 1.0 4.0 0.00 0.00 0.00 52 1010.2
20260905170503 96 49 0.0 4.0 0.00 0.00 0.00 49 1010.3
20260905170003 96 67 0.0 3.0 0.00 0.00 0.00 51 1010.4
20260905165503 95 261 0.0 3.0 0.00 0.00 0.00 55 1010.5
20260905165003 95 255 1.0 4.0 0.00 0.00 0.00 51 1010.5
20260905164503 94 31 1.0 5.0 0.00 0.00 0.00 53 1010.5
20260905164003 94 62 1.0 5.0 0.00 0.00 0.00 55 1010.5
20260905163503 94 49 1.0 5.0 0.00 0.00 0.00 54 1010.5
20260905163003 94 42 1.0 5.0 0.00 0.00 0.00 54 1010.6
20260905162503 94 35 0.0 3.0 0.00 0.00 0.00 53 1010.7
20260905162003 94 29 0.0 3.0 0.00 0.00 0.00 56 1010.9
20260905161503 93 53 0.0 3.0 0.00 0.00 0.00 56 1010.9
20260905161003 92 63 0.0 3.0 0.00 0.00 0.00 57 1010.9
20260905160503 92 108 0.0 2.0 0.00 0.00 0.00 56 1011.0
20260905160003 93 6 1.0 8.0 0.00 0.00 0.00 57 1011.2
20260905155503 92 34 1.0 8.0 0.00 0.00 0.00 57 1011.3
20260905155003 92 47 1.0 5.0 0.00 0.00 0.00 59 1011.4
20260905154503 91 44 1.0 5.0 0.00 0.00 0.00 60 1011.4
20260905154003 91 234 0.0 3.0 0.00 0.00 0.00 61 1011.5
20260905153503 91 222 0.0 3.0 0.00 0.00 0.00 60 1011.5
20260905153003 90 205 0.0 3.0 0.00 0.00 0.00 61 1011.5
20260905152503 90 60 1.0 6.0 0.00 0.00 0.00 65 1011.6
20260905152003 89 59 1.0 6.0 0.00 0.00 0.00 66 1011.5
20260905151503 88 209 0.0 4.0 0.00 0.00 0.00 64 1011.6
20260905151003 88 212 0.0 4.0 0.00 0.00 0.00 65 1011.6
20260905150503 88 235 0.0 2.0 0.00 0.00 0.00 66 1011.7
20260905150003 87 249 0.0 5.0 0.00 0.00 0.00 69 1011.7
20260905145503 87 248 0.0 5.0 0.00 0.00 0.00 69 1011.6
20260905145003 86 275 0.0 5.0 0.00 0.00 0.00 69 1011.7
20260905144503 86 131 0.0 5.0 0.00 0.00 0.00 70 1011.7
20260905144003 86 100 0.0 3.0 0.00 0.00 0.00 72 1011.6
20260905143503 86 353 0.0 5.0 0.00 0.00 0.00 71 1011.6
20260905143003 85 323 0.0 5.0 0.00 0.00 0.00 74 1011.6
20260905142503 84 255 0.0 4.0 0.00 0.00 0.00 74 1011.7
20260905142003 84 257 1.0 4.0 0.00 0.00 0.00 75 1011.7
20260905141503 84 263 0.0 2.0 0.00 0.00 0.00 74 1011.6
20260905141003 83 239 0.0 2.0 0.00 0.00 0.00 76 1011.6
20260905140503 83 237 0.0 2.0 0.00 0.00 0.00 76 1011.6
20260905140004 83 247 1.0 4.0 0.00 0.00 0.00 79 1011.5
20260905135503 82 256 0.0 4.0 0.00 0.00 0.00 78 1011.4
20260905135003 82 268 0.0 2.0 0.00 0.00 0.00 79 1011.4
20260905134503 82 243 0.0 2.0 0.00 0.00 0.00 80 1011.4
20260905134003 81 250 1.0 4.0 0.00 0.00 0.00 81 1011.5
20260905133503 81 259 1.0 4.0 0.00 0.00 0.00 82 1011.5
20260905133003 81 271 0.0 4.0 0.00 0.00 0.00 82 1011.5
20260905132503 80 263 0.0 2.0 0.00 0.00 0.00 83 1011.6
20260905132003 80 221 0.0 2.0 0.00 0.00 0.00 84 1011.6
20260905131503 80 262 0.0 5.0 0.00 0.00 0.00 84 1011.5
20260905131003 79 291 0.0 5.0 0.00 0.00 0.00 85 1011.6
20260905130503 79 243 0.0 2.0 0.00 0.00 0.00 86 1011.6
20260905130003 79 249 0.0 2.0 0.00 0.00 0.00 86 1011.7
20260905125503 79 265 0.0 1.0 0.00 0.00 0.00 86 1011.8
20260905125003 78 249 0.0 1.0 0.00 0.00 0.00 87 1011.8
20260905124503 78 269 0.0 2.0 0.00 0.00 0.00 88 1011.8
20260905124003 78 263 0.0 2.0 0.00 0.00 0.00 88 1011.8
20260905123503 77 237 0.0 4.0 0.00 0.00 0.00 89 1011.8
20260905123003 77 243 0.0 4.0 0.00 0.00 0.00 89 1011.8
20260905122503 77 252 0.0 3.0 0.00 0.00 0.00 89 1011.8
20260905122003 77 280 0.0 2.0 0.00 0.00 0.00 89 1011.8
20260905121503 76 278 0.0 2.0 0.00 0.00 0.00 90 1011.7
20260905121003 76 262 0.0 2.0 0.00 0.00 0.00 90 1011.6
20260905120503 76 262 0.0 2.0 0.00 0.00 0.00 91 1011.6